Location: Beuerbach
(48.1459°N, 10.9174°E)
Time: 20:54:37
(UTC+00:00)

SL-16 R/B - Pass Details

Date: 15 August 2024
Orbit: 842 x 845 km, 71.0° (Epoch: 07 September)

Event Time Altitude Azimuth Distance (km) Brightness Sun altitude
Exits shadow 23:30:31 32° 273° (W) 1,423 3.3 -28.2°
Maximum altitude 23:32:08 38° 308° (NW) 1,266 3.3 -28.2°
Drops below altitude 10° 23:37:25 10° 16° (NNE) 2,476 5.6 -28.1°
Sets 23:40:04 0° 25° (NNE) 3,415 6.4 -28.1°
